Regional Weather Roundup
Issued by NWS

Home | Current Version | Previous Version | Text Only | Print | Product List | Glossary On
Versions: 1 2 3 4 5 6 7 8 9 10 11 12 13 14 15 16 17 18 19 20 21 22 23 24 25 26 27 28 29 30 31 32 33 34 35 36 37 38 39 40 41 42 43 44 45 46 47 48 49 50
000
ASUS45 KABQ 281710
RWRNM
WEATHER ROUNDUP FOR NEW MEXICO
NATIONAL WEATHER SERVICE ALBUQUERQUE NM
1000 AM MST SUN DEC 28 2014

NOTE: "FAIR" MEANS FEW OR NO CLOUDS BELOW 12,000 FEET AGL WITH NO
       SIGNIFICANT WEATHER OR OBSTRUCTIONS TO VISION.

      THIS PRODUCT IS RELEASED AS TWO VERSIONS.  ONE VERSION NEAR
      THE TOP OF THE HOUR CONTAINING PRELIMINARY DATA FROM ALBUQUERQUE
      AND OTHER STATIONS.  A FINAL VERSION WITH ADDITIONAL DATA IS
      ISSUED ABOUT 10 MINUTES AFTER THE HOUR.

NMZ501-503-504-510>518-281800-
NORTHWEST PLATEAU/NORTHCENTRAL MOUNTAINS

CITY           SKY/WX    TMP DP  RH WIND       PRES   REMARKS
FARMINGTON     SUNNY     15   9  76 E8        30.20F WCI   4
LOS ALAMOS     SUNNY     19   9  66 S5        30.10F WCI  12
SANTA FE       SUNNY     24   9  52 NW13      30.12F WCI  12
TAOS           SUNNY     10   5  79 CALM      30.12F
ANGEL FIRE     FAIR      12  10  89 E3        30.01F

$$
NMZ402-403-502-505>509-281800-
WESTCENTRAL MOUNTAINS/SOUTHWEST MOUNTAINS

CITY           SKY/WX    TMP DP  RH WIND       PRES   REMARKS
GALLUP         MOSUNNY   11   7  84 CALM      30.19F
GRANTS         SUNNY     18  10  72 W3        30.19F
SILVER CITY    SUNNY     36  10  35 NW13      30.24S WCI  27

$$
NMZ407-409-411-412-281800-
SOUTHERN DESERTS

CITY           SKY/WX    TMP DP  RH WIND       PRES   REMARKS
LORDSBURG      FAIR      30  25  80 CALM      30.27R
DEMING         SUNNY     34  22  61 W5        30.25S WCI  30
LAS CRUCES     SUNNY     34  19  55 CALM      30.25S
HOLLOMAN AFB   SUNNY     28  22  80 SE3       30.23S
ALAMOGORDO     MOSUNNY   27  27 100 CALM      30.25S
T OR C         SUNNY     31  10  41 CALM      30.22F

$$
NMZ519>523-281800-
CENTRAL VALLEYS/CENTRAL HIGHLANDS

CITY           SKY/WX    TMP DP  RH WIND       PRES   REMARKS
ALBUQUERQUE    MOSUNNY   27  10  49 VRB3      30.21S
DOUBLE EAGLE   MOSUNNY   27   9  46 CALM      30.19S
MORIARTY ARPT  FAIR      30   8  39 NW12      30.13S WCI  20
CLINES CORNERS SUNNY     20   8  60 NW28      30.03S WCI   2
BELEN          FAIR      28  13  53 CALM      30.22R
SOCORRO        FAIR      28  10  47 CALM      30.23F

$$
NMZ524>526-539-540-281800-
SOUTHCENTRAL MOUNTAINS

CITY           SKY/WX    TMP DP  RH WIND       PRES   REMARKS
RUIDOSO        SUNNY     30   5  34 NW5       30.13R WCI  25

$$
NMZ527>531-281800-
NORTHEAST HIGHLANDS/NORTHEAST PLAINS

CITY           SKY/WX    TMP DP  RH WIND       PRES   REMARKS
LAS VEGAS      SUNNY     30   3  31 S6        29.97S WCI  24
RATON          SUNNY     18  11  74 NE6       29.94F WCI  10
CLAYTON        SUNNY     37  13  37 SW10      29.96F WCI  30

$$
NMZ532>537-281800-
EASTCENTRAL PLAINS

CITY           SKY/WX    TMP DP  RH WIND       PRES   REMARKS
TUCUMCARI      SUNNY     27  18  69 SW7       30.02F WCI  19
CANNON AFB     SUNNY     36  10  33 W22       30.04F WCI  24
CLOVIS AIRPORT SUNNY     37  12  35 W22       30.05F WCI  27

$$
NMZ028-029-538-281800-
SOUTHEAST PLAINS

CITY           SKY/WX    TMP DP  RH WIND       PRES   REMARKS
ROSWELL        SUNNY     31  21  66 CALM      30.15F
ARTESIA        SUNNY     36  27  69 SE5       30.16F WCI  32
CARLSBAD       SUNNY     36  30  79 SE8       30.17F WCI  30
HOBBS          SUNNY     37  32  81 SW10      30.18F WCI  30


$$


USA.gov is the U.S. government's official web portal to all federal, state and local government web resources and services.